This demonstration page uses our WeatherBlox Daily Observations layout. Learn more.

Left ArrowRight Arrow

Hourly Observations for November 5, 2021

Temp ( °F °C ) Dew Point ( °F °C ) Humidity (%) Winds ( mph kmh ) Pressure ( in mb ) Visibility ( mi km ) Precip ( " mm )
12:56 am 00:56 Clear 44 6.7 41 5 89 89 S 10 17 30.01 1016 10 16 0.00 0.00
1:56 am 01:56 Clear 43 6.1 40 4.4 89 89 S 12 19 30.01 1016 10 16 0.00 0.00
2:56 am 02:56 Clear 40 4.4 38 3.3 93 93 S 9 15 30.00 1016 10 16 0.00 0.00
3:56 am 03:56 Clear 38 3.3 37 2.8 97 97 S 8 13 29.99 1016 10 16 0.00 0.00
4:56 am 04:56 Clear 39 3.9 37 2.8 93 93 S 8 13 29.99 1016 10 16 0.00 0.00
5:56 am 05:56 Clear 40 4.4 38 3.3 93 93 S 12 19 30.00 1016 10 16 0.00 0.00
6:56 am 06:56 Clear 41 5 38 3.3 89 89 S 16 26 29.99 1016 10 16 0.00 0.00
7:56 am 07:56 Clear 41 5 38 3.3 89 89 SSW 16 26 30.01 1016 10 16 0.00 0.00
8:56 am 08:56 Sunny 42 5.6 39 3.9 89 89 SSW 15 24 30.02 1017 10 16 0.00 0.00
9:56 am 09:56 Sunny 45 7.2 40 4.4 83 83 SSW 23 37 30.01 1016 10 16 0.00 0.00
10:56 am 10:56 Sunny 51 10.6 41 5 69 69 SW 20 31 30.04 1017 10 16 0.00 0.00
11:56 am 11:56 Sunny 54 12.2 42 5.6 64 64 SSW 18 30 30.02 1017 10 16 0.00 0.00
12:56 pm 12:56 Sunny 59 15 43 6.1 56 56 SW 16 26 30.01 1016 10 16 0.00 0.00
1:56 pm 13:56 Sunny 62 16.7 42 5.6 48 48 SW 16 26 29.98 1015 10 16 0.00 0.00
2:56 pm 14:56 Sunny 65 18.3 42 5.6 43 43 SW 14 22 29.96 1015 10 16 0.00 0.00
3:56 pm 15:56 Sunny 67 19.4 42 5.6 41 41 SSW 9 15 29.95 1014 10 16 0.00 0.00
4:56 pm 16:56 Sunny 67 19.4 41 5 39 39 WSW 7 11 29.97 1015 10 16 0.00 0.00
5:56 pm 17:56 Sunny 63 17.2 42 5.6 47 47 SSW 7 11 29.98 1015 10 16 0.00 0.00
6:56 pm 18:56 Clear 56 13.3 43 6.1 62 62 S 7 11 29.99 1016 10 16 0.00 0.00
7:56 pm 19:56 Clear 53 11.7 42 5.6 66 66 S 7 11 30.02 1017 10 16 0.00 0.00
8:56 pm 20:56 Clear 49 9.4 41 5 74 74 S 6 9 30.04 1017 10 16 0.00 0.00
9:56 pm 21:56 Clear 45 7.2 40 4.4 83 83 S 7 11 30.05 1018 10 16 0.00 0.00
10:56 pm 22:56 Clear 45 7.2 41 5 86 86 SSW 8 13 30.06 1018 10 16 0.00 0.00
11:56 pm 23:56 Clear 45 7.2 41 5 86 86 SSW 7 11 30.06 1018 10 16 0.00 0.00

Powered by AerisWeather